User: anonymous   Login
Location: Caltech
(34.1382°N, 118.1253°W)
Time: 18:10:37
(UTC-08:00)
Language:

RESURS DK-1 - Orbit

View from above orbital plane
View from above orbital plane
View from above satellite
View from above satellite

Ground track
Ground track

The orbit data is extracted from the following two-line orbital elements,

1 29228U 06021A   18053.40745493  .00000089  00000-0  14119-4 0  9992
2 29228  69.9356 181.3995 0007156 298.6196  61.4245 15.02285812645673
Epoch (UTC): 22 February 2018 09:46:44
Eccentricity: 0.0007156
inclination: 69.9356°
perigee height: 555 km
apogee height: 565 km
right ascension of ascending node: 181.3995°
argument of perigee: 298.6196°
revolutions per day: 15.02285812
mean anomaly at epoch: 61.4245°
orbit number at epoch: 64567

The dashed part of the orbit path shows where the satellite is in the earth's shadow,  

DLR